SL-16 DEB, 22341

Orbit data source: Space-Track

SL-16 DEB, 22341 is space debris in LEO originally from a launch on Fri, 25 Dec 1992 UTC launched from the Tyuratam Missile And Space Complex (TTMTR). Debris objects in space refer to the collection of defunct objects orbiting the Earth. Examples of debris include non-operational satellites, rocket bodies, and fragments generated from explosions, collisions, or faulty payload assembly.

Loading next visibility...
SL-16 DEB details
Identifier
22341, 1992-093AE
Orbit
LEO
Last TLE update1 day ago
Origin
Flag of CISRVSN RF (CIS)
ManufacturerUnknown
MissionSpacecraft
Bus & MotorUnknown
MassUnknown
Launch date (UTC)
1992-12-25 (32 years ago)
Launch vehicleUnknown
Launch site
Tyuratam Missile And Space Complex (TTMTR)
Object type
Payload
Rocket body
Debris
Shape & HBRUnknown
Radar Cross SectionSmall (<0.1 m²)

Expand to show TLE details & history

TLE from 1 day ago
0 SL-16 DEB
1 22341U 92093AE  24360.69582030  .00000959  00000-0  70208-3 0  9996
2 22341  70.7448 139.2439 0137401  56.0740 316.9606 13.94070426622639
Epoch: 2024-12-25T16:41Z
Definitive object data (Epoch: 2024-12-25T16:41:58.873Z)
Latitude11.23231°
Longitude158.01952°
Altitude843.41 km
Speed7.469 km/s
True Right ascension09h 32m 48s
True Declination11° 10' 03"
Sunlit
Object was in full shadow at TLE epoch
Visualization TLE readout
Latitude-37.73708°
Longitude-12.48382°
Altitude1,025.133 km
Speed7.289 km/s
Apparent Right ascension01h 13m 59s
Apparent Declination-52° 24' 53"
Sunlit
Object is in daylight
Visualization observer readout
Local Sidereal Time17:10:14
Azimuth127.853° SE
Elevation-48.502°
Doppler factor1
Orbital elements
Apogee altitude1,012.543 km
Perigee altitude812.199 km
Semi-major axis7,290.508 km
Eccentricity0.0137401
Inclination70.7448°
RAAN139.2439°
Arg. of periapsis56.074°
True anomaly315.87241°
Mean anomaly316.9606°
Eccentric anomaly316.41788°
Mean motion3.48664 °/min
BSTAR0.00070208
Orbital period103.25 mins
Loading maneuver chart data...
Loading historical data...
Loading historical data...
Loading historical data...
Loading historical data...
Loading historical data...
Loading historical data...
Loading historical data...

SL-16 DEB Visibility forecast

Observer location: undefined°, undefined

Span
Click to sort rows by Start time (UTC) header in descending order
Start Az.
Max El. time (UTC)
Max El. Az.
Max El.
End time (UTC)
End Az.
7 mins2024-12-26 19:00:50.821Z10.422° NNE2024-12-26 19:04:50.821Z56.906° ENE17.923°2024-12-26 19:07:50.821Z90.241° ESE
9 mins2024-12-26 20:46:50.821Z328.602° NNW2024-12-26 20:50:50.821Z232.934° WSW43.232°2024-12-26 20:55:50.821Z168.079° S
9 mins2024-12-27 10:05:50.821Z171.911° S2024-12-27 10:09:50.821Z103.364° ESE34.865°2024-12-27 10:14:50.821Z36.532° NE
7 mins2024-12-27 11:52:50.821Z265.174° W2024-12-27 11:55:50.821Z310.175° NW22.643°2024-12-27 11:59:50.821Z358.731° N
|